[[{"header":{"parameterUnit":"m.s-1","parameterCategory":1,"la1":30.2991,"la2":30.254,"lo1":-89.0895,"lo2":-89.0444,"dy":0.0017,"dx":0.0017,"nx":28,"ny":28,"refTime":"2024-08-27T21:00:00:Z","depth":0,"parameterNumber":2,"parameterNumberName":"U-component_of_WINDS"},"data":[0,0,0,0,0,0,0,0,0,0,0,0,0,0,0,0,0,0,0,0,0,0,0,0,0,0,0,0,0,0,0,0,0,0,0,0,0,0,0,0,0,0,0,0,0,0,0,0,0,0,0,0,0,0,0,0,0,0,-2.5909,-2.591,0,-2.5932,-2.5932,-2.5933,-2.5855,-2.5853,-2.585,-2.5848,-2.5877,-2.588,-2.5883,0,0,0,0,0,0,0,0,0,0,0,0,0,-2.5807,-2.5809,-2.5909,-2.591,-2.591,-2.5932,-2.5932,-2.5933,-2.5856,-2.5853,-2.585,-2.5847,-2.5876,-2.588,-2.5883,0,0,0,0,0,0,0,0,0,0,0,0,0,-2.5843,-2.581,-2.5909,-2.5874,-2.5871,-2.5932,-2.5932,-2.5933,-2.5856,-2.5853,-2.5849,-2.5846,-2.5875,-2.588,-2.5884,-2.5982,0,0,-2.5897,-2.5899,0,0,0,0,0,0,0,0,-2.5841,-2.5847,-2.5879,-2.5877,-2.5873,-2.5887,-2.5907,-2.5949,-2.5857,-2.5862,-2.5848,-2.5844,-2.5884,-2.5887,-2.5899,-2.5983,-2.5984,-2.5898,-2.5901,-2.5902,-2.5904,0,0,0,0,0,0,0,-2.5838,-2.5845,-2.5919,-2.588,-2.5876,-2.5859,-2.5861,-2.5915,-2.5893,-2.5861,-2.5856,-2.5859,-2.5882,-2.5895,-2.59,-2.5985,-2.5898,-2.5902,-2.5904,-2.5906,-2.6152,-2.6156,0,0,0,0,0,0,-2.584,-2.5844,-2.5918,-2.5919,-2.5848,-2.5864,-2.5865,-2.5886,-2.5892,-2.5889,-2.5862,-2.5855,-2.589,-2.5895,-2.59,-2.6016,-2.5902,-2.5907,-2.5909,-2.6149,-2.6153,-2.6157,0,0,0,0,0,0,-2.5838,-2.5847,-2.5917,-2.588,-2.5888,-2.587,-2.5894,-2.5889,-2.5902,-2.5892,-2.5889,-2.588,-2.5887,-2.5894,-2.5962,-2.6016,-2.5909,-2.5913,-2.6144,-2.615,-2.6155,-2.6247,0,0,0,0,0,0,-2.5835,-2.5847,-2.5882,-2.5881,-2.589,-2.5976,-2.5897,-2.5892,-2.5909,-2.5901,-2.5908,-2.5906,-2.5885,-2.5956,-2.5967,-2.602,-2.5916,-2.6139,-2.6147,-2.6153,-2.624,-2.6256,-2.627,0,0,0,0,0,-2.5832,-2.5908,-2.5884,-2.5893,-2.5933,-2.5979,-2.5985,-2.5957,-2.5914,-2.595,-2.5944,-2.5905,-2.6009,-2.5964,-2.5975,-2.603,-2.6136,-2.6144,-2.6153,-2.6233,-2.6253,-2.6269,0,0,0,0,0,0,-2.5916,-2.5907,-2.588,-2.5958,-2.597,-2.5966,-2.6011,-2.5979,-2.6005,-2.5996,-2.5963,-2.5965,-2.604,-2.6042,-2.5992,-2.6127,-2.6065,-2.6076,-2.6122,-2.614,-2.6155,-2.6153,-2.592,0,0,0,0,0,-2.5944,-2.598,-2.5971,-2.6041,-2.6048,-2.6029,-2.6048,-2.6026,-2.6038,-2.6043,-2.6042,-2.6057,-2.6093,-2.6117,-2.6149,-2.624,-2.6242,-2.6285,-2.63,-2.6312,-2.6322,-2.6372,-2.6391,-2.6186,-2.6186,-2.6186,0,0,-2.6002,-2.6001,-2.6026,-2.6058,-2.6064,-2.6105,-2.6034,-2.6079,-2.611,-2.6051,-2.6114,-2.6115,-2.6129,-2.621,-2.6245,-2.6214,-2.6379,-2.6323,-2.6333,-2.6336,-2.6383,-2.6402,-2.6419,-2.6192,-2.6191,-2.619,0,0,-2.6127,-2.613,-2.6188,-2.6196,-2.6207,-2.6194,-2.6209,-2.621,-2.6208,-2.6271,-2.6228,-2.6265,-2.6327,-2.634,-2.6354,-2.6488,-2.6453,-2.65,-2.6578,-2.6627,-2.6643,-2.6657,-2.6705,-2.6722,-2.651,-2.651,-2.651,0,-2.6197,-2.6254,-2.6223,-2.6272,-2.6288,-2.6235,-2.6296,-2.6306,-2.6328,-2.6342,-2.6306,-2.6384,-2.639,-2.6473,-2.6506,-2.652,-2.6536,-2.6498,-2.6642,-2.6656,-2.6669,-2.6715,-2.6733,-2.6516,-2.6515,-2.6514,-2.6514,0,-2.6341,-2.6382,-2.6429,-2.6449,-2.6471,-2.6526,-2.6505,-2.6531,-2.6509,-2.6501,-2.6567,-2.6573,-2.6606,-2.6625,-2.6603,-2.6706,-2.6686,-2.6648,-2.6584,-2.6695,-2.6737,-2.6754,-2.6524,-2.6522,-2.652,-2.6519,0,0,-2.6518,-2.6522,-2.6539,-2.6549,-2.6558,-2.659,-2.6644,-2.6675,-2.6699,-2.6717,-2.6762,-2.6817,-2.6782,-2.6798,-2.6779,-2.6822,-2.6928,-2.6778,-2.6778,-2.6805,-2.7042,-2.7071,-2.7091,-2.6906,-2.6909,-2.6912,-2.7041,0,-2.6641,-2.673,-2.6705,-2.6795,-2.6834,-2.6786,-2.6833,-2.6846,-2.6841,-2.6874,-2.687,-2.6909,-2.6859,-2.6869,-2.691,-2.6906,-2.6975,-2.6897,-2.6949,-2.6951,-2.6946,-2.7113,-2.7143,-2.7264,-2.7057,-2.706,-2.7062,0,-2.6795,-2.6818,-2.6912,-2.6916,-2.6931,-2.6974,-2.7001,-2.7034,-2.7048,-2.7041,-2.7061,-2.7034,-2.7089,-2.7027,-2.7105,-2.7052,-2.7073,-2.7075,-2.7079,-2.7082,-2.7013,-2.712,-2.7302,-2.732,-2.7088,-2.7086,-2.7084,0,-2.6915,-2.6969,-2.7033,-2.7042,-2.7049,-2.708,-2.7085,-2.7095,-2.7116,-2.7142,-2.7155,-2.7188,-2.7205,-2.7232,-2.7215,-2.7171,-2.7296,-2.7232,-2.7293,-2.7294,-2.732,-2.7319,-2.7508,-2.7335,-2.7335,-2.7335,-2.7334,0,-2.7055,-2.7114,-2.7086,-2.7125,-2.7192,-2.7164,-2.7231,-2.723,-2.7241,-2.7281,-2.7243,-2.7282,-2.7257,-2.7295,-2.7282,-2.7349,-2.7358,-2.7355,-2.7351,-2.7358,-2.7358,-2.737,-2.7361,-2.7339,-2.7338,-2.7337,-2.7337,0,-2.7199,-2.7182,-2.7248,-2.7249,-2.7251,-2.73,-2.7302,-2.734,-2.7333,-2.7384,-2.7395,-2.7384,-2.7427,-2.7412,-2.7459,-2.745,-2.7535,-2.752,-2.753,-2.7526,-2.7588,-2.7582,-2.779,-2.7816,-2.7628,-2.7629,-2.7631,0,-2.7288,-2.7332,-2.7338,-2.7361,-2.7368,-2.7406,-2.7427,-2.7403,-2.7427,-2.7448,-2.7484,-2.7523,-2.7552,-2.7623,-2.7621,-2.7657,-2.7643,-2.7713,-2.7648,-2.7654,-2.7644,-2.7641,-2.7646,-2.7726,-2.7728,-2.773,-2.7731,0,-2.7449,-2.7439,-2.7469,-2.7498,-2.7524,-2.7546,-2.7565,-2.7587,-2.7564,-2.7593,-2.7635,-2.7658,-2.7706,-2.7745,-2.7778,-2.7786,-2.7756,-2.7752,-2.7768,-2.7775,-2.7779,-2.7778,-2.7565,-2.7747,-2.7746,-2.7745,-2.7744,-2.7743,-2.7568,-2.7606,-2.7616,-2.7652,-2.7664,-2.7683,-2.7718,-2.7715,-2.7749,-2.7784,-2.7769,-2.7818,-2.7834,-2.7875,-2.7887,-2.7927,-2.79,-2.7923,-2.7929,-2.7935,-2.7943,-2.7773,-2.7933,-2.7932,-2.7932,-2.7931,-2.7931,0,-2.7727,-2.7731,-2.7765,-2.7792,-2.7821,-2.7789,-2.7809,-2.7836,-2.7879,-2.7896,-2.7926,-2.7976,-2.8015,-2.8016,-2.8053,-2.8085,-2.8073,-2.8096,-2.8093,-2.8095,-2.7964,-2.7947,-2.8105,-2.8105,-2.8105,-2.8105,-2.8105,-2.8105,-2.7813,-2.7875,-2.7867,-2.7936,-2.7941,-2.7987,-2.8001,-2.802,-2.8032,-2.8089,-2.8121,-2.8121,-2.8133,-2.817,-2.8206,-2.8206,-2.8221,-2.825,-2.8244,-2.8122,-2.8104,-2.8088,-2.8071,-2.8253,-2.8253,-2.8372,-2.8373,-2.8374]},{"header":{"parameterUnit":"m.s-1","parameterCategory":1,"la1":30.2991,"la2":30.254,"lo1":-89.0895,"lo2":-89.0444,"dy":0.0017,"dx":0.0017,"nx":28,"ny":28,"refTime":"2024-08-27T21:00:00:Z","depth":0,"parameterNumber":3,"parameterNumberName":"V-component_of_WINDS"},"data":[0,0,0,0,0,0,0,0,0,0,0,0,0,0,0,0,0,0,0,0,0,0,0,0,0,0,0,0,0,0,0,0,0,0,0,0,0,0,0,0,0,0,0,0,0,0,0,0,0,0,0,0,0,0,0,0,0,0,3.4716,3.4717,0,3.4794,3.4795,3.4796,3.487,3.4871,3.4872,3.4873,3.4949,3.495,3.4951,0,0,0,0,0,0,0,0,0,0,0,0,0,3.4626,3.4627,3.4716,3.4717,3.4718,3.4794,3.4795,3.4796,3.487,3.4871,3.4872,3.4873,3.4949,3.495,3.4951,0,0,0,0,0,0,0,0,0,0,0,0,0,3.468,3.4627,3.4716,3.4764,3.4769,3.4794,3.4795,3.4797,3.487,3.4871,3.4873,3.4874,3.4948,3.495,3.4951,3.4934,0,0,3.4957,3.4957,0,0,0,0,0,0,0,0,3.4677,3.4684,3.4756,3.4761,3.4766,3.4824,3.4792,3.4842,3.4869,3.4831,3.4873,3.4875,3.4906,3.4911,3.4923,3.4937,3.4941,3.4957,3.4958,3.4959,3.4959,0,0,0,0,0,0,0,3.4673,3.4681,3.4747,3.4757,3.4763,3.478,3.479,3.4801,3.486,3.4835,3.484,3.4849,3.4909,3.4921,3.4925,3.4942,3.4957,3.4958,3.4959,3.496,3.4945,3.4944,0,0,0,0,0,0,3.4663,3.4677,3.4744,3.4749,3.4725,3.4781,3.4791,3.4804,3.486,3.487,3.4848,3.4852,3.4917,3.4923,3.4928,3.4911,3.4959,3.496,3.4961,3.4947,3.4945,3.4943,0,0,0,0,0,0,3.4661,3.4668,3.4741,3.4715,3.4725,3.4781,3.4795,3.4805,3.4817,3.487,3.488,3.4849,3.4919,3.4926,3.4932,3.4915,3.4961,3.4963,3.4948,3.4946,3.4944,3.4877,0,0,0,0,0,0,3.4658,3.4667,3.4662,3.4714,3.4726,3.4745,3.4794,3.4805,3.482,3.4827,3.4874,3.4883,3.492,3.4929,3.4934,3.4918,3.4964,3.495,3.4947,3.4945,3.4881,3.4872,3.4865,0,0,0,0,0,3.4654,3.4639,3.4661,3.4669,3.4721,3.4744,3.4751,3.4795,3.4818,3.4813,3.4847,3.4881,3.4916,3.4929,3.4935,3.4919,3.4952,3.4948,3.4945,3.4884,3.4874,3.4866,0,0,0,0,0,0,3.4582,3.4647,3.4672,3.4673,3.4703,3.4756,3.4751,3.4783,3.4806,3.4811,3.4864,3.4874,3.4874,3.4897,3.4911,3.4905,3.4938,3.4936,3.489,3.4881,3.4873,3.4868,3.4965,0,0,0,0,0,3.4566,3.458,3.4636,3.4631,3.4645,3.4695,3.4707,3.4738,3.477,3.4783,3.4817,3.4845,3.4863,3.4873,3.4892,3.4884,3.4895,3.4876,3.4869,3.4862,3.4859,3.4857,3.4849,3.4933,3.4933,3.4933,0,0,3.4533,3.4571,3.4576,3.4618,3.4644,3.4656,3.4705,3.4716,3.4725,3.4784,3.4793,3.4819,3.4854,3.4853,3.4854,3.4872,3.4839,3.4858,3.4852,3.4854,3.4853,3.4845,3.4837,3.4931,3.4931,3.4932,0,0,3.4481,3.451,3.451,3.4536,3.4576,3.4609,3.4609,3.4658,3.4678,3.4688,3.4732,3.4743,3.4771,3.4795,3.481,3.4765,3.4798,3.477,3.473,3.4727,3.472,3.4715,3.4698,3.4692,3.4767,3.4767,3.4767,0,3.4435,3.4456,3.4505,3.4514,3.453,3.4585,3.4585,3.4607,3.465,3.4659,3.4679,3.4717,3.4744,3.475,3.4739,3.4749,3.475,3.4765,3.4717,3.4712,3.4708,3.4693,3.4686,3.4763,3.4764,3.4764,3.4764,0,3.4398,3.4412,3.4407,3.4449,3.4465,3.4468,3.4516,3.4526,3.4556,3.4587,3.4596,3.4631,3.4658,3.4661,3.469,3.467,3.468,3.4708,3.4743,3.4695,3.4682,3.4677,3.4758,3.4759,3.4761,3.4761,0,0,3.4302,3.4371,3.4368,3.4388,3.4436,3.4447,3.4452,3.448,3.4487,3.4514,3.452,3.4543,3.4569,3.4586,3.4618,3.4615,3.4577,3.4643,3.4645,3.463,3.4557,3.4536,3.4528,3.4599,3.4598,3.4597,3.4554,0,3.4257,3.4273,3.4316,3.4317,3.4331,3.4382,3.4387,3.4416,3.4445,3.4459,3.449,3.4506,3.4539,3.455,3.4549,3.4582,3.4563,3.4586,3.4603,3.4603,3.4593,3.4522,3.45,3.4457,3.4549,3.4548,3.4548,0,3.4208,3.4233,3.4236,3.4283,3.429,3.4294,3.4322,3.4335,3.4369,3.439,3.4409,3.4445,3.4452,3.4484,3.4494,3.4508,3.4518,3.4535,3.4534,3.4538,3.4573,3.4523,3.4445,3.4438,3.454,3.4541,3.4541,0,3.4137,3.4172,3.4179,3.4193,3.4248,3.425,3.4272,3.4307,3.4321,3.4345,3.4354,3.4378,3.4391,3.4408,3.4449,3.4469,3.4454,3.449,3.4471,3.447,3.4466,3.4466,3.4388,3.4472,3.4472,3.4472,3.4472,0,3.4083,3.4083,3.4148,3.4151,3.4152,3.4202,3.42,3.4228,3.4258,3.4267,3.4312,3.4319,3.4373,3.4386,3.4417,3.4421,3.4426,3.4442,3.4451,3.4438,3.4436,3.4446,3.445,3.447,3.4471,3.4471,3.4471,0,3.4005,3.4049,3.4059,3.411,3.4123,3.4121,3.4164,3.4169,3.42,3.4211,3.4216,3.4265,3.4282,3.4325,3.4353,3.4374,3.4368,3.4384,3.4358,3.4363,3.4342,3.4343,3.4267,3.426,3.4348,3.4347,3.4346,0,3.3968,3.3969,3.402,3.403,3.4051,3.4067,3.4081,3.4129,3.4142,3.4179,3.4179,3.42,3.422,3.4245,3.4282,3.4303,3.432,3.4292,3.4323,3.431,3.4319,3.4318,3.4319,3.4284,3.4283,3.4282,3.4282,0,3.3897,3.3919,3.3938,3.3965,3.3981,3.4004,3.4029,3.4034,3.4088,3.41,3.4119,3.4134,3.4163,3.4183,3.421,3.4232,3.4265,3.4271,3.4268,3.4256,3.424,3.4248,3.4339,3.4273,3.4274,3.4274,3.4275,3.4275,3.3839,3.3842,3.3878,3.3898,3.3923,3.3945,3.3952,3.3985,3.4002,3.403,3.4057,3.4073,3.4105,3.4145,3.4165,3.4177,3.4194,3.4189,3.4188,3.4186,3.4181,3.4238,3.4182,3.4182,3.4182,3.4183,3.4183,0,3.377,3.3796,3.3814,3.3849,3.3864,3.3895,3.3924,3.3935,3.3949,3.3977,3.3995,3.4016,3.4035,3.4074,3.4096,3.4099,3.4114,3.4103,3.4103,3.4108,3.4164,3.4165,3.409,3.409,3.409,3.409,3.409,3.409,3.3736,3.3743,3.3769,3.3788,3.3814,3.3831,3.3845,3.3865,3.3888,3.391,3.3927,3.3952,3.3983,3.4009,3.4027,3.4038,3.4044,3.4027,3.4043,3.4095,3.4104,3.4112,3.4113,3.4028,3.4028,3.3985,3.3985,3.3985]}]]